• Join FlightAware (Why Join?)
  • Login
  • US Flag 
09:43AM EST


 

Airport Tracker/Info


-or-


 

Live Flight TrackerFlight Track Log ✈ N46PA ✈ 24-Apr-2012 ✈ KBLI - KBFI

Flight Track Log - Related Links

Times and Time Zones

All times are in EDT time to prevent confusion due to time zone crossing. See the N46PA flight status page for this flight to view local times or setup timezone preferences in your user account.

Time Position Orientation Groundspeed Altitude Reporting Facility
EDT Latitude Longitude Course Direction KTS MPH feet Rate Location/Type
04:32PM 48.7833 -122.5333 213° Southwest 90 104 300  Level Vancouver Center
04:33PM 48.7500 -122.5667 213° Southwest 100 115 1,400 1,200 Climbing Vancouver Center
04:34PM 48.7333 -122.5833 180° South 110 127 2,700 1,150 Climbing Vancouver Center
04:35PM 48.7000 -122.5833 162° South 110 127 3,700 1,050 Climbing Vancouver Center
04:36PM 48.6667 -122.5667 198° South 120 138 4,800 650 Climbing Vancouver Center
04:37PM 48.6333 -122.5833 180° South 130 150 5,000 100 Climbing Vancouver Center
04:38PM 48.5833 -122.5833 204° Southwest 160 184 5,000  Level Vancouver Center
04:39PM 48.5333 -122.6167 236° Southwest 160 184 5,000  Level Vancouver Center
04:40PM 48.5292 -122.6261 193° South 157 181 5,000  Level Seattle Center
04:41PM 48.5089 -122.6333 198° South 155 178 5,000  Level Seattle Center
04:41PM 48.4850 -122.6450 191° South 153 176 5,000  Level Seattle Center
04:42PM 48.4478 -122.6564 190° South 150 173 5,000  Level Seattle Center
04:43PM 48.4286 -122.6617 193° South 149 171 5,000 -64 Level Seattle Center
04:44PM 48.3883 -122.6758 194° South 150 173 4,900 -319 Descending Seattle Center
04:44PM 48.3617 -122.6858 193° South 152 175 4,500 -574 Descending Seattle Center
04:45PM 48.3186 -122.7006 195° South 156 180 4,000 -246 Descending Seattle Center
04:46PM 48.2803 -122.7158 191° South 137 158 4,000  Level Seattle Center
04:47PM 48.2428 -122.7272 183° South 134 154 4,000  Level Seattle Center
04:48PM 48.2267 -122.7283 179° South 134 154 4,000  Level Seattle Center
04:48PM 48.2072 -122.7278 173° South 134 154 4,000  Level Seattle Center
04:49PM 48.1903 -122.7244 179° South 132 152 4,000  Level Seattle Center
04:50PM 48.1531 -122.7239 180° South 134 154 4,000 -146 Level Seattle Center
04:51PM 48.1150 -122.7236 182° South 134 154 3,700 -535 Descending Seattle Center
04:51PM 48.0808 -122.7258 180° South 158 182 3,100 -560 Descending Seattle Center
04:52PM 48.0567 -122.7258 175° South 150 173 3,000 -72 Descending Seattle Center
04:53PM 48.0358 -122.7231 155° Southeast 142 163 3,000  Level Seattle Center
04:54PM 47.9967 -122.6956 150° Southeast 127 146 3,000 -49 Level Seattle Center
04:55PM 47.9661 -122.6689 149° Southeast 128 147 2,900  Descending Seattle Center
04:56PM 47.9353 -122.6417 155° Southeast 127 146 3,000 49 Climbing Seattle Center
04:57PM 47.9039 -122.6194 148° Southeast 129 148 3,000  Level Seattle Center
04:58PM 47.8731 -122.5911 155° Southeast 130 150 3,000  Level Seattle Center
04:59PM 47.8414 -122.5689 150° Southeast 128 147 3,000  Level Seattle Center
05:00PM 47.8047 -122.5372 149° Southeast 128 147 3,000 -295 Level Seattle Center
05:01PM 47.7750 -122.5111 151° Southeast 124 143 2,400 -390 Descending Seattle Center
05:02PM 47.7447 -122.4861 148° Southeast 124 143 2,200 -98 Descending Seattle Center
05:03PM 47.7200 -122.4631 152° Southeast 107 123 2,200  Level Seattle Center
05:04PM 47.6917 -122.4403 150° Southeast 107 123 2,200  Level Seattle Center
05:05PM 47.6650 -122.4178 149° Southeast 109 125 2,200  Level Seattle Center
05:06PM 47.6406 -122.3956 151° Southeast 108 124 2,200 -195 Level Seattle Center
05:07PM 47.6164 -122.3758 150° Southeast 95 109 1,800 -492 Descending Seattle Center
05:08PM 47.5914 -122.3547 150° Southeast 102 117 1,200 -541 Descending Seattle Center
05:09PM 47.5706 -122.3372 149° Southeast 102 117 700 -439 Descending Seattle Center
05:10PM 47.5481 -122.3175 154° Southeast 99 114 300 -293 Descending Seattle Center
05:11PM 47.5225 -122.2992 154° Southeast 96 110 100 -197 Descending Seattle Center